This is the latest recevied weather packets stored in our database for station/object PP5MEL-5. If no packets are shown the sender has not sent any weather packets the latest 1 day(s).
| Time | Temp. | Humidity | Pressure | Rain* | Wind** | Luminosity | Snow |
|---|---|---|---|---|---|---|---|
| 1778089780 | 29.44° C | 48% | 1016.9 hPa | - | - | - | - |
| 1778089159 | 29.44° C | 49% | 1017 hPa | - | - | - | - |
| 1778088849 | 29.44° C | 49% | 1017 hPa | - | - | - | - |
| 1778084502 | 28.33° C | 53% | 1017.8 hPa | - | - | - | - |
| 1778083260 | 27.78° C | 54% | 1018.4 hPa | - | - | - | - |
| 1778082949 | 27.78° C | 54% | 1018.4 hPa | - | - | - | - |
| 1778082638 | 27.22° C | 54% | 1018.4 hPa | - | - | - | - |
| 1778082328 | 27.22° C | 54% | 1018.6 hPa | - | - | - | - |
| 1778081086 | 27.22° C | 54% | 1019.1 hPa | - | - | - | - |
| 1778080465 | 26.67° C | 55% | 1019.2 hPa | - | - | - | - |
| 1778080154 | 26.67° C | 56% | 1019.4 hPa | - | - | - | - |
| 1778078912 | 26.11° C | 57% | 1020 hPa | - | - | - | - |
| 1778078602 | 26.11° C | 58% | 1020.1 hPa | - | - | - | - |
| 1778077981 | 25.56° C | 58% | 1020.2 hPa | - | - | - | - |
| 1778077050 | 25.56° C | 58% | 1020.5 hPa | - | - | - | - |
| 1778076740 | 25° C | 58% | 1020.6 hPa | - | - | - | - |
| 1778075809 | 25° C | 58% | 1020.9 hPa | - | - | - | - |
| 1778075498 | 25° C | 58% | 1021.1 hPa | - | - | - | - |
| 1778074877 | 25° C | 58% | 1021.1 hPa | - | - | - | - |
| 1778073945 | 24.44° C | 59% | 1021.4 hPa | - | - | - | - |
| 1778072706 | 24.44° C | 59% | 1021.4 hPa | - | - | - | - |
| 1778072086 | 24.44° C | 59% | 1021.4 hPa | - | - | - | - |
| 1778071466 | 23.89° C | 58% | 1021.4 hPa | - | - | - | - |
| 1778071156 | 23.89° C | 58% | 1021.4 hPa | - | - | - | - |
| 1778070846 | 23.89° C | 59% | 1021.5 hPa | - | - | - | - |
* Rain since midnight (hover to see other rain measurements)
** Current wind speed in m/s (hover to see current wind gust speed)